STARCLOUD-1

导读

STARCLOUD-1卫星由美国初创公司Starcloud研发,于2025年11月2日由SpaceX猎鹰9号火箭发射升空。这颗仅重60公斤的卫星运行在距地球约350公里的超低轨道,承载着英伟达首次送入太空的H100 GPU,旨在测试太空数据处理能力,是将地面数据基础设施迁移到太空的关键一步。卫星将接收合成孔径雷达卫星数据并实时处理回传,开启太空算力探索新征程。

Basic Information
目录编号:
66303
目录名称:
STARCLOUD-1
国际标识:
2025-248L
轨道中心:
EARTH
卫星名称:
STARCLOUD-1
卫星全名:
STARCLOUD-1
卫星状态:
在轨 (已飞行307 天)
发射日期:
2025-11-02 UTC
国别 :
美国 (US)
星等 :
--
Orbit Information
数据来源 国际轨道数据
星历时间: 2026-09-05T20:22:55+0800
5小时前
查看轨道信息
半长轴: 6877.968km
偏心率: 0.0004369
轨道倾角: 45.401°
近地点辐角 146.625°
升交点赤经 48.860°
平近点角 213.491°
近地点: 496.826km
远地点: 502.836km
周期: 94.613分钟
每日圈数: 15.219927
Detailed Information
使用方式:
暂无
2D Orbit Map
3D Orbit Map
Orbit Altitude Analysis Chart
Orbit Inclination Analysis Chart
Orbit Comprehensive Analysis Chart
View Comprehensive Chart
Conjunction Data List
Event ID Objects TCA Miss Dist (km) Collision Risk Probability Collision Risk Index (CRI) Action
CDM_260908-043906-630306-667121
2026-09-08T
04:39:24+0000
2.822 km
极远距离
1.152999E-6 低风险 0.36